{"data":{"norad_id":55135,"epoch":"2026-09-21T23:06:45.747936Z","epoch_age_seconds":41853,"freshness":"FRESH","line1":"1 55135U 23003C   26264.96302949  .00020297  00000+0  25482-3 0  9992","line2":"2 55135  97.1443 341.8449 0004050 120.3805 239.7853 15.59736074207340","mean_motion":15.59736074,"eccentricity":0.000405,"inclination_deg":97.1443,"raan_deg":341.8449,"arg_perigee_deg":120.3805,"mean_anomaly_deg":239.7853,"bstar":0.00025482,"rev_number":20734,"period_min":92.323311873339,"perigee_km":385.67983905905,"apogee_km":391.1607504678,"semimajor_km":6766.5572947634,"source":"CELESTRAK","updated_at":"2026-09-22T09:00:25.273168Z"}}